Le nostre stazioni meteo in Italia

Pubblicità
Il mio iltempo24.it
Geneve-Cointrin, Svizzera (6700): Temperatura & dewpoint: 22.03.2017 11:00:00 - 28.03.2017 11:00:00 (CEST)Geneve-Cointrin, Svizzera (6700): Temperatura 5cm: 22.03.2017 11:00:00 - 28.03.2017 11:00:00 (CEST)Geneve-Cointrin, Svizzera (6700): velocità del vento & gusts: 22.03.2017 11:00:00 - 28.03.2017 11:00:00 (CEST)Geneve-Cointrin, Svizzera (6700): direzione del vento: 22.03.2017 11:00:00 - 28.03.2017 11:00:00 (CEST)Geneve-Cointrin, Svizzera (6700): reduced air pressure: 22.03.2017 11:00:00 - 28.03.2017 11:00:00 (CEST)Geneve-Cointrin, Svizzera (6700): visibility: 22.03.2017 11:00:00 - 28.03.2017 11:00:00 (CEST)Geneve-Cointrin, Svizzera (6700): ore di luce: 22.03.2017 11:00:00 - 28.03.2017 11:00:00 (CEST)Geneve-Cointrin, Svizzera (6700): precipitazioni: 22.03.2017 11:00:00 - 28.03.2017 11:00:00 (CEST)
Data & Tempo tt [°C] td [°C] tt 5cm [°C] ff [km/h] ff [kn] fx [km/h] fx [kn] dd ppp [hPa] vv [km] sd [min] rr [mm]
28.03.2017 11:00:00 13,5 5,7 - 4 2 - - SSE 1025,6 20 60 0,0
28.03.2017 10:00:00 11,6 5,3 - 3 2 7 4 E 1025,9 - 60 0,0
28.03.2017 09:00:00 8,8 5,5 - 3 1 5 3 N 1026,1 - 11 0,0
28.03.2017 08:00:00 7,4 5,0 - 4 2 - - N 1026,1 20 0 0,0
28.03.2017 07:00:00 6,0 4,2 - 4 2 8 4 NO 1026,0 - 0 0,0
28.03.2017 06:00:00 4,7 3,3 - 3 2 7 4 O 1026,0 - 0 0,0
28.03.2017 05:00:00 5,2 4,1 2,3 2 1 5 3 O 1025,5 - 0 0,0
28.03.2017 04:00:00 5,5 4,6 - 3 2 8 5 O 1025,4 - 0 0,0
28.03.2017 03:00:00 6,3 4,2 - 3 2 6 3 N 1025,4 - 0 0,0
28.03.2017 02:00:00 6,7 4,7 - 4 2 - - O 1025,0 - 0 0,0
28.03.2017 01:00:00 7,5 5,0 - 4 2 6 3 OSO 1024,4 - 0 0,0
28.03.2017 00:00:00 8,9 5,5 - 0 0 6 3 N 1023,8 - 0 0,0
27.03.2017 23:00:00 10,3 6,0 - 2 1 - - NNE 1023,4 18 0 0,0
27.03.2017 22:00:00 13,8 6,2 - 6 3 19 11 O 1022,2 - 0 0,0
27.03.2017 21:00:00 13,8 5,9 - 13 7 26 14 SO 1021,7 - 0 0,0
27.03.2017 20:00:00 15,6 6,1 12,9 21 11 36 20 SO 1020,8 20 26 0,0
27.03.2017 19:00:00 17,4 6,6 - 22 12 32 18 SO 1020,0 - 60 0,0
27.03.2017 18:00:00 16,6 4,5 - 7 4 13 7 ENE 1020,0 - 60 0,0
27.03.2017 17:00:00 16,5 4,8 - 6 3 - - ENE 1020,0 20 60 0,0
27.03.2017 16:00:00 16,0 5,0 - 7 4 18 10 ENE 1020,7 - 60 0,0
27.03.2017 15:00:00 14,3 3,9 - 13 7 18 10 E 1021,4 - 60 0,0
27.03.2017 14:00:00 13,2 3,6 20,4 9 5 18 10 E 1021,9 18 60 0,0
27.03.2017 13:00:00 12,5 4,9 - 10 5 17 9 E 1022,5 - 60 0,0
27.03.2017 12:00:00 11,0 4,5 - 5 3 16 9 NE 1023,1 - 60 0,0
27.03.2017 11:00:00 9,7 3,9 - 6 3 - - NNE 1023,4 14 60 0,0
27.03.2017 10:00:00 8,1 4,4 - 4 2 9 5 NNE 1023,6 - 60 0,0
27.03.2017 09:00:00 6,2 3,8 - 4 2 6 3 N 1023,4 - 36 0,0
27.03.2017 08:00:00 2,5 1,7 -0,4 1 0 5 3 ONO 1023,4 10 0 0,0
27.03.2017 07:00:00 2,3 1,7 - 3 2 5 3 SO 1023,2 - 0 0,0
27.03.2017 06:00:00 2,5 1,7 - 2 1 4 2 NO 1022,8 - 0 0,0
27.03.2017 05:00:00 3,2 2,2 0,4 3 1 5 3 O 1022,3 - 0 0,0
27.03.2017 04:00:00 3,3 2,5 -0,1 3 1 4 2 NNO 1022,3 - 0 0,0
27.03.2017 03:00:00 4,0 2,6 0,3 0 0 5 3 N 1022,1 - 0 0,0
27.03.2017 02:00:00 4,7 3,0 1,0 3 1 9 5 O 1021,9 - 0 0,0
27.03.2017 01:00:00 5,5 3,5 - 8 4 10 5 S 1021,7 - 0 0,0
27.03.2017 00:00:00 5,8 2,7 - 3 1 5 3 SSO 1021,8 - 0 0,0
26.03.2017 23:00:00 6,8 3,9 - 4 2 - - NO 1021,7 50 0 0,0
26.03.2017 22:00:00 7,6 4,1 - 5 3 9 5 NE 1021,4 - 0 0,0
26.03.2017 21:00:00 8,9 4,1 - 6 3 18 10 N 1021,0 - 0 0,0
26.03.2017 20:00:00 9,9 3,7 - 7 4 - - N 1020,6 45 6 0,0
26.03.2017 19:00:00 11,4 3,2 - 13 7 30 16 NNE 1020,5 - 49 0,0
26.03.2017 18:00:00 12,5 3,0 - 17 9 32 17 NNE 1020,2 - 42 0,0
26.03.2017 17:00:00 13,7 3,6 - 19 10 - - NE 1020,3 50 9 0,0
26.03.2017 16:00:00 13,0 2,2 - 16 8 22 12 NE 1020,5 - 34 0,0
26.03.2017 15:00:00 13,3 2,7 - 14 8 20 11 E 1020,6 - 45 0,0
26.03.2017 14:00:00 11,7 0,7 - 5 3 - - E 1021,2 50 16 0,0
26.03.2017 13:00:00 11,0 2,2 - 10 5 25 13 E 1021,9 - 52 0,0
26.03.2017 12:00:00 10,4 3,6 - 7 4 14 8 NE 1021,7 - 60 0,0
26.03.2017 11:00:00 9,2 4,3 - 6 3 - - ENE 1022,0 70 31 0,0
26.03.2017 10:00:00 7,8 4,2 - 3 2 5 3 NNO 1022,4 - 0 0,0
26.03.2017 09:00:00 7,0 3,8 - 3 1 8 4 ONO 1022,3 - 0 0,0
26.03.2017 08:00:00 6,0 4,6 - 5 3 - - E 1022,0 50 0 0,0
26.03.2017 07:00:00 5,9 4,7 - 5 3 8 4 SSO 1021,7 - 0 0,0
26.03.2017 06:00:00 6,0 4,7 - 5 3 9 5 ONO 1022,1 - 0 0,0
26.03.2017 05:00:00 6,2 4,4 5,4 4 2 19 11 O 1022,0 - 0 0,0
26.03.2017 04:00:00 6,3 4,5 - 11 6 19 10 SO 1021,8 - 0 0,6
26.03.2017 03:00:00 6,8 4,4 - 11 6 29 15 OSO 1021,6 - 0 0,1
26.03.2017 02:00:00 7,3 3,3 - 18 10 - - SO 1021,2 - 0 0,0
26.03.2017 01:00:00 7,6 3,5 - 31 17 42 23 SSO 1020,6 - 0 0,0
26.03.2017 00:00:00 8,3 3,3 - 24 13 39 21 SSO 1020,1 - 0 0,0
25.03.2017 23:00:00 8,6 3,0 - 26 14 - - SSO 1020,0 30 0 0,0
25.03.2017 22:00:00 9,3 3,3 - 25 14 39 21 SSO 1019,6 - 0 0,0
25.03.2017 21:00:00 9,5 2,7 - 20 11 42 23 SSO 1019,2 - 0 0,0
25.03.2017 20:00:00 9,9 3,2 - 28 15 - - SSO 1018,6 40 0 0,0
25.03.2017 19:00:00 10,5 3,8 - 38 20 54 29 SSO 1018,1 - 0 0,0
25.03.2017 18:00:00 11,8 5,4 - 34 18 48 26 SSO 1017,2 - 0 0,0
25.03.2017 17:00:00 14,4 6,1 - 10 5 - - ESE 1016,3 10 40 0,0
25.03.2017 16:00:00 14,1 5,9 - 8 4 24 13 SE 1016,5 - 60 0,0
25.03.2017 15:00:00 13,5 5,9 - 14 8 28 15 ENE 1016,4 - 60 0,0
25.03.2017 14:00:00 13,3 5,9 - 19 11 - - NE 1016,9 9 60 0,0
25.03.2017 13:00:00 12,1 5,6 - 19 10 35 19 ENE 1017,7 - 60 0,0
25.03.2017 12:00:00 11,6 6,0 - 24 13 34 19 NE 1018,5 - 55 0,0
25.03.2017 11:00:00 9,7 5,6 - 18 10 - - NE 1019,3 9 2 0,0
25.03.2017 10:00:00 9,1 5,8 - 24 13 34 18 NE 1019,6 - 0 0,0
25.03.2017 09:00:00 8,8 5,9 - 16 9 31 17 NNE 1020,2 - 0 0,0
25.03.2017 08:00:00 8,9 6,1 - 17 9 - - NNE 1020,8 8 0 0,0
25.03.2017 07:00:00 8,8 6,1 - 18 10 27 15 NNE 1020,8 - 0 0,0
25.03.2017 06:00:00 9,0 6,3 - 12 6 28 15 NNE 1021,2 - 0 0,0
25.03.2017 05:00:00 9,1 6,6 8,5 13 7 21 12 NE 1021,9 - 0 0,0
25.03.2017 04:00:00 9,1 6,4 - 15 8 24 13 NNE 1022,6 - 0 0,0
25.03.2017 03:00:00 9,2 6,4 - 13 7 20 11 NE 1022,8 - 0 0,0
25.03.2017 02:00:00 9,4 6,3 - 14 8 - - NNE 1022,8 - 0 0,0
25.03.2017 01:00:00 9,6 6,7 - 15 8 22 12 NNE 1023,0 - 0 0,0
25.03.2017 00:00:00 10,0 7,1 - 6 3 10 5 NNE 1022,9 - 0 0,0
24.03.2017 23:00:00 8,0 6,4 - 5 3 - - NNO 1023,1 9 0 0,0
24.03.2017 22:00:00 8,1 6,5 - 3 2 8 4 NO 1022,8 - 0 0,0
24.03.2017 21:00:00 9,5 7,0 - 3 2 9 5 N 1022,5 - 0 0,0
24.03.2017 20:00:00 10,7 7,3 - 4 2 - - NNO 1021,9 9 0 0,0
24.03.2017 19:00:00 11,7 7,7 - 5 3 13 7 N 1021,1 - 0 0,0
24.03.2017 18:00:00 12,3 7,7 - 4 2 15 8 N 1020,7 - 0 0,0
24.03.2017 17:00:00 12,4 7,7 - 10 5 - - NNE 1020,5 8 0 0,0
24.03.2017 16:00:00 11,9 7,4 - 5 3 16 8 N 1020,7 - 0 0,0
24.03.2017 15:00:00 11,7 7,6 - 11 6 16 9 NE 1020,5 - 0 0,0
24.03.2017 14:00:00 11,5 7,6 - 9 5 - - NE 1020,7 8 0 0,0
24.03.2017 13:00:00 11,4 7,7 - 9 5 15 8 NE 1020,5 - 0 0,0
24.03.2017 12:00:00 11,1 6,9 - 8 4 17 9 NE 1020,6 - 0 0,0
24.03.2017 11:00:00 10,9 6,6 - 6 3 - - N 1020,3 22 0 0,0
24.03.2017 10:00:00 10,3 6,5 - 3 2 7 4 O 1019,8 - 0 0,0
24.03.2017 09:00:00 9,3 6,7 - 3 2 7 4 O 1019,6 - 0 0,0
24.03.2017 08:00:00 9,4 6,3 - 3 2 - - S 1018,7 25 0 0,0
24.03.2017 07:00:00 8,7 6,5 - 3 1 5 3 O 1018,2 - 0 0,0
24.03.2017 06:00:00 8,7 6,1 - 1 1 10 6 O 1018,5 - 0 0,0
24.03.2017 05:00:00 8,8 5,7 7,8 3 2 6 3 NNE 1018,3 - 0 0,0
24.03.2017 04:00:00 8,8 5,8 - 2 1 12 7 NNO 1018,7 - 0 0,0
24.03.2017 03:00:00 9,1 5,7 - 4 2 15 8 O 1018,7 - 0 0,0
24.03.2017 02:00:00 9,4 5,7 - 12 7 - - SO 1018,0 - 0 0,0
24.03.2017 01:00:00 10,0 6,4 - 6 3 12 6 S 1017,2 - 0 0,0
24.03.2017 00:00:00 10,1 6,5 - 10 5 16 9 SSO 1016,2 - 0 0,0
23.03.2017 23:00:00 9,1 6,3 - 5 3 - - NO 1014,6 50 0 0,0
23.03.2017 22:00:00 9,2 6,0 - 2 1 12 6 N 1013,7 - 0 0,0
23.03.2017 21:00:00 11,3 6,2 - 6 3 11 6 OSO 1012,4 - 0 0,0
23.03.2017 20:00:00 12,1 6,3 - 6 3 - - OSO 1011,5 50 0 0,0
23.03.2017 19:00:00 13,4 6,3 - 6 4 11 6 OSO 1010,6 - 3 0,0
23.03.2017 18:00:00 13,9 5,9 - 6 3 13 7 N 1009,4 - 38 0,0
23.03.2017 17:00:00 13,4 5,1 - 7 4 - - ENE 1009,7 50 47 0,0
23.03.2017 16:00:00 12,3 4,7 - 4 2 14 8 NNE 1010,3 - 9 0,0
23.03.2017 15:00:00 11,9 4,8 - 8 4 22 12 NNE 1010,8 - 14 0,0
23.03.2017 14:00:00 10,6 4,2 15,4 13 7 31 17 NE 1011,4 45 49 0,0
23.03.2017 13:00:00 10,4 5,0 - 20 11 31 17 NNE 1012,0 - 55 0,0
23.03.2017 12:00:00 9,3 5,2 15,8 15 8 27 15 NE 1012,5 - 45 0,0
23.03.2017 11:00:00 7,8 4,6 10,1 10 6 17 9 ENE 1013,4 40 2 0,0
23.03.2017 10:00:00 7,2 4,7 - 12 6 20 11 NE 1013,3 - 0 0,0
23.03.2017 09:00:00 6,9 4,4 - 5 3 13 7 N 1013,5 - 0 0,0
23.03.2017 08:00:00 6,5 4,3 5,5 8 4 14 7 N 1012,9 - 0 0,0
23.03.2017 07:00:00 6,3 4,4 - 8 5 15 8 N 1012,9 - 0 0,0
23.03.2017 06:00:00 6,5 4,3 5,3 6 3 12 6 NNE 1013,3 - 0 0,0
23.03.2017 05:00:00 5,9 5,1 5,2 0 0 5 3 SE 1013,6 - 0 0,0
23.03.2017 04:00:00 5,6 5,1 - 2 1 12 6 NNE 1013,7 - 0 0,0
23.03.2017 03:00:00 6,0 5,1 - 5 3 18 10 N 1014,0 - 0 0,0
23.03.2017 02:00:00 6,6 5,1 - 10 6 - - NNE 1013,8 - 0 0,0
23.03.2017 01:00:00 6,6 5,5 - 8 4 15 8 NNE 1013,9 - 0 0,0
23.03.2017 00:00:00 6,6 5,1 - 7 4 19 10 NNE 1013,8 - 0 0,0
22.03.2017 23:00:00 6,5 5,0 - 8 4 - - ENE 1013,5 20 0 0,0
22.03.2017 22:00:00 6,9 5,6 - 13 7 23 12 ESE 1013,3 - 0 0,9
22.03.2017 21:00:00 7,7 6,7 - 10 6 21 11 ESE 1012,5 - 0 0,8
22.03.2017 20:00:00 8,4 7,1 - 3 1 - - NE 1011,7 9 0 1,5
22.03.2017 19:00:00 10,1 4,9 - 8 4 20 11 ESE 1010,4 - 0 0,1
22.03.2017 18:00:00 11,2 3,6 - 10 6 21 11 NNE 1009,4 - 0 0,0
22.03.2017 17:00:00 11,9 4,5 - 16 9 - - NNE 1009,4 45 8 0,0
22.03.2017 16:00:00 12,1 4,0 - 16 9 22 12 NE 1009,8 - 25 0,0
22.03.2017 15:00:00 12,1 4,1 - 14 8 21 12 ENE 1010,3 - 28 0,0
22.03.2017 14:00:00 11,9 4,5 - 7 4 - - ENE 1011,1 50 33 0,0
22.03.2017 13:00:00 12,1 3,4 - 5 3 22 12 E 1011,6 - 60 0,0
22.03.2017 12:00:00 9,8 3,3 - 8 4 17 9 SO 1012,5 - 58 0,0
22.03.2017 11:00:00 - - - - - - - - - - - -

tt = Temperatura
td = dewpoint
tt 5cm = Temperatura 5cm
ff = velocità del vento
fx = gusts
dd = direzione del vento
ppp = reduced air pressure
vv = visibility
sd = ore di luce
rr = precipitazioni

Stazioni seguenti

WeatherPro
AMSI
MeteoEarth